Lawton, OK

12:31 PM CST on January 16, 2018 (GMT -0600)
Lawton-Fort Sill Regional

Weather History for KLAW - June, 2012

Change the Weather History Date:

Saturday, June 30, 2012

  Actual Average Record
Temperature  
Mean Temperature 88 °F -  
Max Temperature 102 °F 94 °F 105 °F (1956)
Min Temperature 75 °F 70 °F 59 °F (2008)
Cooling Degree Days 22    
Growing Degree Days 38 (Base 50)    
Moisture  
Dew Point 62 °F    
Average Humidity 41    
Maximum Humidity 69    
Minimum Humidity 22    
Precipitation  
Precipitation 0.00 in - - ()
Sea Level Pressure  
Sea Level Pressure 29.81 in    
Wind  
Wind Speed 10 mph (SSE)    
Max Wind Speed 15 mph    
Max Gust Speed 24 mph    
Visibility 10 miles    
Events      
Averages and records for this station are not official NWS values.
T = Trace of Precipitation, MM = Missing Value Source: NWS Daily Summary

Daily Weather History Graph

Daily Weather History Graph

Search for Another Location

Airport or City:

Trip Planner

Search our weather history database for the weather conditions in past years. The results will help you decide how hot, cold, wet, or windy it might be!

Date:

Astronomy

Jun. 30, 2012 Rise Set
Actual Time 6:24 AM CDT 8:50 PM CDT
Civil Twilight 5:54 AM CDT 9:19 PM CDT
Nautical Twilight 5:18 AM CDT 9:56 PM CDT
Astronomical Twilight 4:38 AM CDT 10:35 PM CDT
Moon 5:50 PM CDT (6/30) 3:17 AM CDT (6/30)
Length of Visible Light 15h 24m
Length of Day
14h 26m
Waxing Gibbous, 87% of the Moon is Illuminated
Jun 30
Waxing Gibbous
Jul 3
Full
Jul 10
Last Quarter
Jul 18
New
Jul 26
First Quarter

Hourly Weather History & Observations

Time (CDT) Temp. Heat Index Dew Point Humidity Pressure Visibility Wind Dir Wind Speed Gust Speed Precip Events Conditions
12:53 AM 82.9 °F 83.7 °F 62.1 °F 49% 29.82 in 9.0 mi SSE 9.2 mph - N/A   Clear
1:53 AM 82.0 °F 83.1 °F 63.0 °F 52% 29.81 in 9.0 mi South 10.4 mph - N/A   Clear
2:53 AM 78.1 °F - 63.0 °F 60% 29.83 in 9.0 mi South 4.6 mph - N/A   Clear
4:53 AM 75.0 °F - 63.0 °F 66% 29.83 in - North - - N/A   Unknown
7:53 AM 77.0 °F - 66.0 °F 69% 29.87 in 7.0 mi SE 5.8 mph - N/A   Clear
8:53 AM 82.9 °F 85.4 °F 66.9 °F 58% 29.87 in 8.0 mi South 11.5 mph - N/A   Clear
9:53 AM 88.0 °F 91.4 °F 68.0 °F 51% 29.85 in 9.0 mi SSW 9.2 mph - N/A   Clear
10:53 AM 91.9 °F 95.4 °F 66.9 °F 44% 29.85 in 10.0 mi South 9.2 mph - N/A   Clear
11:53 AM 97.0 °F 99.9 °F 64.9 °F 35% 29.84 in 10.0 mi South 13.8 mph - N/A   Clear
12:53 PM 98.1 °F 99.1 °F 62.1 °F 30% 29.83 in 10.0 mi South 9.2 mph 20.7 mph N/A   Clear
1:53 PM 99.0 °F 99.5 °F 61.0 °F 28% 29.82 in 10.0 mi South 9.2 mph 17.3 mph N/A   Clear
2:53 PM 100.0 °F 100.2 °F 59.0 °F 26% 29.80 in 10.0 mi South 12.7 mph 17.3 mph N/A   Clear
3:53 PM 100.9 °F 99.6 °F 55.9 °F 22% 29.78 in 10.0 mi SSE 9.2 mph 23.0 mph N/A   Clear
4:53 PM 100.9 °F 99.6 °F 55.9 °F 22% 29.77 in 10.0 mi SSE 13.8 mph 19.6 mph N/A   Clear
5:53 PM 100.9 °F 100.5 °F 57.9 °F 24% 29.76 in 10.0 mi SSE 15.0 mph 23.0 mph N/A   Clear
6:53 PM 99.0 °F 98.1 °F 57.9 °F 25% 29.80 in 10.0 mi SSE 15.0 mph 24.2 mph N/A   Clear
7:53 PM 96.1 °F 95.6 °F 59.0 °F 29% 29.77 in 10.0 mi SSE 12.7 mph - N/A   Clear
8:53 PM 93.0 °F 93.8 °F 62.1 °F 36% 29.78 in 10.0 mi SSE 10.4 mph - N/A   Clear
9:53 PM 90.0 °F 90.3 °F 62.1 °F 39% 29.79 in 10.0 mi SE 9.2 mph - N/A   Clear
10:53 PM 87.1 °F 88.9 °F 64.9 °F 48% 29.82 in 10.0 mi SE 10.4 mph - N/A   Clear
11:53 PM 84.9 °F 87.1 °F 66.0 °F 53% 29.82 in 10.0 mi SE 10.4 mph - N/A   Clear